TimeCST,TemperatureF,Dew PointF,Humidity,Sea Level PressureIn,VisibilityMPH,Wind Direction,Wind SpeedMPH,Gust SpeedMPH,PrecipitationIn,Events,Conditions,WindDirDegrees,DateUTC
12:54 AM,35.1,35.1,100,30.45,0.2,South,9.2,-,N/A,Fog,Fog,170,2012-11-17 06:54:00
1:54 AM,36.0,36.0,100,30.47,0.2,South,6.9,-,N/A,Fog,Fog,170,2012-11-17 07:54:00
2:54 AM,36.0,35.1,97,30.46,1.0,South,8.1,-,N/A,,Overcast,170,2012-11-17 08:54:00
3:02 AM,35.6,35.6,100,30.42,0.8,South,8.1,-,N/A,,Overcast,180,2012-11-17 09:02:00
3:54 AM,35.1,35.1,100,30.45,0.5,SSE,8.1,-,N/A,Fog,Fog,160,2012-11-17 09:54:00
4:54 AM,35.1,35.1,100,30.46,0.2,SSE,8.1,-,N/A,Fog,Fog,160,2012-11-17 10:54:00
5:54 AM,35.1,34.0,96,30.47,0.2,South,9.2,-,N/A,Fog,Fog,170,2012-11-17 11:54:00
6:54 AM,34.0,34.0,100,30.47,0.2,SSE,8.1,-,N/A,Fog,Fog,150,2012-11-17 12:54:00
7:54 AM,34.0,34.0,100,30.47,0.2,SSE,10.4,-,N/A,Fog,Fog,160,2012-11-17 13:54:00
8:54 AM,35.1,35.1,100,30.47,0.2,South,11.5,-,N/A,Fog,Fog,170,2012-11-17 14:54:00
9:54 AM,36.0,36.0,100,30.47,0.5,SSE,10.4,-,N/A,Fog,Fog,160,2012-11-17 15:54:00
10:16 AM,37.4,35.6,93,30.42,1.2,SSE,9.2,-,N/A,,Overcast,160,2012-11-17 16:16:00
10:44 AM,37.4,37.4,100,30.41,2.0,South,9.2,-,N/A,,Mostly Cloudy,170,2012-11-17 16:44:00
10:52 AM,39.2,35.6,87,30.41,2.5,South,10.4,-,N/A,,Scattered Clouds,170,2012-11-17 16:52:00
10:54 AM,39.0,36.0,89,30.45,3.0,South,9.2,-,N/A,,Partly Cloudy,170,2012-11-17 16:54:00
11:54 AM,46.0,37.0,71,30.43,5.0,South,8.1,-,N/A,,Haze,180,2012-11-17 17:54:00
12:54 PM,51.1,36.0,56,30.40,10.0,South,12.7,-,N/A,,Clear,180,2012-11-17 18:54:00
1:54 PM,52.0,35.1,53,30.38,10.0,South,13.8,21.9,N/A,,Clear,190,2012-11-17 19:54:00
2:54 PM,51.1,36.0,56,30.38,10.0,South,11.5,-,N/A,,Clear,170,2012-11-17 20:54:00
3:54 PM,48.9,35.1,59,30.39,10.0,South,15.0,-,N/A,,Clear,170,2012-11-17 21:54:00
4:54 PM,46.0,34.0,63,30.39,10.0,SSE,6.9,-,N/A,,Clear,150,2012-11-17 22:54:00
5:54 PM,44.1,34.0,68,30.39,10.0,SSE,8.1,-,N/A,,Clear,160,2012-11-17 23:54:00
6:54 PM,44.1,34.0,68,30.39,10.0,South,9.2,-,N/A,,Clear,170,2012-11-18 00:54:00
7:54 PM,43.0,34.0,71,30.39,10.0,South,11.5,-,N/A,,Clear,170,2012-11-18 01:54:00
8:54 PM,42.1,34.0,73,30.39,9.0,SSE,8.1,-,N/A,,Clear,160,2012-11-18 02:54:00
9:54 PM,41.0,33.1,73,30.39,8.0,South,8.1,-,N/A,,Clear,170,2012-11-18 03:54:00
10:54 PM,41.0,32.0,70,30.38,8.0,South,9.2,-,N/A,,Clear,170,2012-11-18 04:54:00
11:54 PM,37.9,32.0,79,30.39,8.0,South,6.9,-,N/A,,Clear,180,2012-11-18 05:54:00